TimeMST,TemperatureF,Dew PointF,Humidity,Sea Level PressureIn,VisibilityMPH,Wind Direction,Wind SpeedMPH,Gust SpeedMPH,PrecipitationIn,Events,Conditions,WindDirDegrees,DateUTC
12:53 AM,43.0,24.1,47,29.77,10.0,NE,3.5,-,N/A,,Clear,50,2014-01-03 07:53:00
1:53 AM,43.0,24.1,47,29.73,10.0,WSW,4.6,-,N/A,,Clear,240,2014-01-03 08:53:00
2:53 AM,43.0,25.0,49,29.70,10.0,Variable,3.5,-,N/A,,Clear,0,2014-01-03 09:53:00
3:53 AM,42.1,25.0,51,29.66,10.0,Calm,Calm,-,N/A,,Clear,0,2014-01-03 10:53:00
4:53 AM,41.0,25.0,53,29.63,10.0,Calm,Calm,-,N/A,,Clear,0,2014-01-03 11:53:00
5:53 AM,41.0,26.1,55,29.59,10.0,NNW,8.1,-,N/A,,Clear,340,2014-01-03 12:53:00
6:53 AM,39.0,25.0,57,29.57,10.0,Variable,3.5,-,N/A,,Clear,0,2014-01-03 13:53:00
7:53 AM,51.1,24.1,35,29.49,10.0,WSW,16.1,28.8,N/A,,Clear,250,2014-01-03 14:53:00
8:53 AM,48.9,24.1,38,29.49,10.0,WSW,5.8,-,N/A,,Overcast,250,2014-01-03 15:53:00
9:53 AM,48.0,25.0,41,29.47,10.0,NNE,9.2,-,N/A,,Overcast,20,2014-01-03 16:53:00
10:53 AM,46.9,27.0,46,29.44,10.0,NNW,11.5,-,N/A,,Partly Cloudy,340,2014-01-03 17:53:00
11:53 AM,50.0,26.1,39,29.41,10.0,West,9.2,-,N/A,,Scattered Clouds,280,2014-01-03 18:53:00
12:53 PM,46.9,27.0,46,29.43,10.0,NW,17.3,24.2,N/A,,Overcast,320,2014-01-03 19:53:00
1:53 PM,39.9,30.0,68,29.49,10.0,NW,38.0,48.3,N/A,,Overcast,320,2014-01-03 20:53:00
2:33 PM,35.1,30.9,85,29.51,9.0,NW,41.4,52.9,0.00,Snow,Light Snow,320,2014-01-03 21:33:00
2:48 PM,35.6,30.2,81,29.51,-9999.0,North,-9999.0,-,0.00,,Unknown,0,2014-01-03 21:48:00
2:53 PM,36.0,28.9,76,29.55,-9999.0,NW,36.8,52.9,0.00,,Unknown,310,2014-01-03 21:53:00
3:53 PM,37.9,26.1,62,29.59,10.0,NW,24.2,35.7,0.00,,Overcast,320,2014-01-03 22:53:00
4:53 PM,37.0,24.1,59,29.66,10.0,NW,25.3,35.7,N/A,,Overcast,320,2014-01-03 23:53:00
5:53 PM,33.1,23.0,66,29.74,10.0,NW,35.7,54.1,N/A,,Partly Cloudy,320,2014-01-04 00:53:00
6:53 PM,27.0,19.9,75,29.87,10.0,NNW,39.1,47.2,0.00,,Mostly Cloudy,330,2014-01-04 01:53:00
7:08 PM,26.1,19.9,78,29.80,10.0,NNW,35.7,46.0,N/A,,Overcast,330,2014-01-04 02:08:00
7:53 PM,26.1,19.9,78,29.89,10.0,NNW,29.9,39.1,0.00,,Overcast,340,2014-01-04 02:53:00
8:44 PM,25.0,21.0,85,29.86,2.5,NW,16.1,-,0.00,Snow,Light Snow,320,2014-01-04 03:44:00
8:53 PM,25.0,21.0,85,29.92,3.0,NW,19.6,-,0.00,Snow,Light Snow,310,2014-01-04 03:53:00
9:53 PM,24.1,19.0,81,29.95,10.0,NW,18.4,-,0.00,,Overcast,310,2014-01-04 04:53:00
10:53 PM,24.1,19.0,81,29.96,10.0,NNW,16.1,-,N/A,,Overcast,330,2014-01-04 05:53:00
11:16 PM,24.1,19.9,84,29.90,10.0,NW,15.0,-,N/A,,Overcast,320,2014-01-04 06:16:00
11:42 PM,24.1,19.9,84,29.90,9.0,NW,13.8,-,0.00,Snow,Light Snow,310,2014-01-04 06:42:00
11:53 PM,24.1,19.0,81,29.97,9.0,NW,16.1,-,0.00,Snow,Light Snow,320,2014-01-04 06:53:00